Location: *
(37.9500°N, 27.3666°E)
Time: 15:05:54
(UTC+00:00)

Lacrosse 4 Rocket - Pass Details

Date: 24 October 2021
Orbit: 537 x 619 km, 68.0° (Epoch: 05 December)

Event Time Altitude Azimuth Distance (km) Brightness Sun altitude
Rises 15:52:40 0° 348° (NNW) 2,816 5.0 -6.9°
Reaches altitude 10° 15:55:24 10° 5° (N) 1,928 4.0 -7.5°
Maximum altitude 15:58:38 20° 54° (NE) 1,395 2.9 -8.1°
Drops below altitude 10° 16:01:55 10° 102° (ESE) 1,953 3.5 -8.7°
Enters shadow 16:02:09 - 104° (ESE) 2,024 3.6 -8.8°
